When you browse on this site, cookies collect data to enhance your experience and personalize the content and advertising you see.
Visit our Privacy Policy to learn more. By continuing to use the site, you agree to this use of cookies and data.

Stündliche Wetter Annaba

Heute, 4 Juli, Samstag

Zeit Temperatur Niederschläge Wind Luftdruck Luftfeuchtigkeit
00:00 +24°C° 0 mm 3 m/S 762 mmHg 81%
01:00 +24°C° 0 mm 3 m/S 762 mmHg 85%
02:00 +22°C° 0 mm 3 m/S 762 mmHg 86%
03:00 +22°C° 0 mm 3 m/S 762 mmHg 86%
04:00 +21°C° 0 mm 3 m/S 762 mmHg 87%
05:00 +22°C° 0 mm 3 m/S 762 mmHg 83%
06:00 +24°C° 0 mm 3 m/S 763 mmHg 78%
07:00 +25°C° 0 mm 4 m/S 763 mmHg 73%
08:00 +26°C° 0 mm 4 m/S 763 mmHg 68%
09:00 +27°C° 0 mm 5 m/S 763 mmHg 62%
10:00 +28°C° 0 mm 5 m/S 763 mmHg 57%
11:00 +29°C° 0 mm 6 m/S 763 mmHg 54%
12:00 +29°C° 0 mm 6 m/S 763 mmHg 51%
13:00 +30°C° 0 mm 7 m/S 763 mmHg 48%
14:00 +30°C° 0 mm 7 m/S 763 mmHg 48%
15:00 +29°C° 0 mm 7 m/S 762 mmHg 49%
16:00 +29°C° 0 mm 6 m/S 762 mmHg 50%
17:00 +28°C° 0 mm 6 m/S 762 mmHg 54%
18:00 +27°C° 0 mm 6 m/S 762 mmHg 57%
19:00 +26°C° 0 mm 5 m/S 763 mmHg 61%
20:00 +25°C° 0 mm 5 m/S 763 mmHg 68%
21:00 +23°C° 0 mm 4 m/S 763 mmHg 74%
22:00 +22°C° 0 mm 4 m/S 764 mmHg 80%
23:00 +22°C° 0 mm 4 m/S 763 mmHg 82%

Morgen, 5 Juli, Sonntag

Zeit Temperatur Niederschläge Wind Luftdruck Luftfeuchtigkeit
00:00 +21°C° 0 mm 4 m/S 763 mmHg 83%
01:00 +21°C° 0 mm 4 m/S 763 mmHg 85%
02:00 +21°C° 0 mm 4 m/S 763 mmHg 85%
03:00 +21°C° 0 mm 4 m/S 762 mmHg 86%
04:00 +21°C° 0 mm 4 m/S 762 mmHg 86%
05:00 +21°C° 0.1 mm 4 m/S 762 mmHg 82%
06:00 +22°C° 0.1 mm 4 m/S 762 mmHg 78%
07:00 +23°C° 0.1 mm 4 m/S 762 mmHg 74%
08:00 +25°C° 0 mm 4 m/S 762 mmHg 69%
09:00 +26°C° 0 mm 5 m/S 762 mmHg 64%
10:00 +27°C° 0 mm 5 m/S 762 mmHg 58%
11:00 +28°C° 0 mm 5 m/S 762 mmHg 55%
12:00 +29°C° 0 mm 6 m/S 762 mmHg 51%
13:00 +30°C° 0 mm 6 m/S 762 mmHg 48%
14:00 +30°C° 0 mm 6 m/S 762 mmHg 49%
15:00 +30°C° 0 mm 6 m/S 761 mmHg 50%
16:00 +29°C° 0 mm 7 m/S 761 mmHg 51%
17:00 +28°C° 0 mm 6 m/S 761 mmHg 56%
18:00 +27°C° 0 mm 6 m/S 761 mmHg 60%
19:00 +26°C° 0 mm 5 m/S 761 mmHg 65%
20:00 +25°C° 0 mm 4 m/S 761 mmHg 72%
21:00 +23°C° 0 mm 4 m/S 761 mmHg 78%
22:00 +22°C° 0 mm 3 m/S 761 mmHg 85%
23:00 +22°C° 0 mm 3 m/S 761 mmHg 85%

übermorgen, 6 Juli, Montag

Zeit Temperatur Niederschläge Wind Luftdruck Luftfeuchtigkeit
00:00 +21°C° 0 mm 3 m/S 760 mmHg 86%
01:00 +21°C° 0 mm 3 m/S 760 mmHg 86%
02:00 +21°C° 0 mm 4 m/S 760 mmHg 86%
03:00 +21°C° 0 mm 4 m/S 759 mmHg 86%
04:00 +21°C° 0 mm 4 m/S 759 mmHg 86%
05:00 +22°C° 0 mm 4 m/S 759 mmHg 80%
06:00 +23°C° 0 mm 4 m/S 759 mmHg 75%
07:00 +23°C° 0 mm 4 m/S 759 mmHg 69%
08:00 +26°C° 0 mm 5 m/S 759 mmHg 66%
09:00 +27°C° 0 mm 6 m/S 759 mmHg 62%
10:00 +28°C° 0 mm 6 m/S 759 mmHg 58%
11:00 +29°C° 0 mm 7 m/S 759 mmHg 57%
12:00 +30°C° 0 mm 7 m/S 758 mmHg 55%
13:00 +32°C° 0 mm 7 m/S 758 mmHg 53%
14:00 +32°C° 0 mm 8 m/S 758 mmHg 54%
15:00 +31°C° 0 mm 8 m/S 758 mmHg 56%
16:00 +31°C° 0 mm 8 m/S 758 mmHg 57%
17:00 +29°C° 0 mm 7 m/S 758 mmHg 62%
18:00 +28°C° 0 mm 6 m/S 758 mmHg 68%
19:00 +27°C° 0 mm 6 m/S 758 mmHg 73%
20:00 +27°C° 0 mm 6 m/S 758 mmHg 77%
21:00 +26°C° 0 mm 5 m/S 758 mmHg 82%
22:00 +25°C° 0 mm 5 m/S 759 mmHg 86%
23:00 +25°C° 0 mm 5 m/S 759 mmHg 87%

7 Juli, Dienstag

Zeit Temperatur Niederschläge Wind Luftdruck Luftfeuchtigkeit
00:00 +23°C° 0 mm 5 m/S 758 mmHg 88%
01:00 +23°C° 0 mm 5 m/S 758 mmHg 90%
02:00 +23°C° 0 mm 5 m/S 758 mmHg 88%
03:00 +23°C° 0 mm 5 m/S 758 mmHg 86%
04:00 +22°C° 0 mm 6 m/S 757 mmHg 85%
05:00 +23°C° 0 mm 5 m/S 758 mmHg 81%
06:00 +25°C° 0 mm 5 m/S 758 mmHg 77%
07:00 +25°C° 0 mm 5 m/S 758 mmHg 74%
08:00 +27°C° 0 mm 6 m/S 758 mmHg 68%
09:00 +28°C° 0 mm 6 m/S 759 mmHg 63%
10:00 +29°C° 0 mm 6 m/S 759 mmHg 57%
11:00 +30°C° 0 mm 6 m/S 759 mmHg 52%
12:00 +30°C° 0 mm 6 m/S 759 mmHg 48%
13:00 +32°C° 0 mm 6 m/S 759 mmHg 43%
14:00 +32°C° 0 mm 6 m/S 758 mmHg 44%
15:00 +32°C° 0 mm 6 m/S 758 mmHg 44%
16:00 +30°C° 0 mm 6 m/S 758 mmHg 45%
17:00 +29°C° 0 mm 5 m/S 758 mmHg 50%
18:00 +28°C° 0 mm 5 m/S 758 mmHg 54%
19:00 +27°C° 0 mm 4 m/S 759 mmHg 58%
20:00 +26°C° 0 mm 4 m/S 759 mmHg 65%
21:00 +25°C° 0 mm 4 m/S 759 mmHg 71%
22:00 +24°C° 0 mm 3 m/S 760 mmHg 77%
23:00 +22°C° 0 mm 3 m/S 759 mmHg 78%

8 Juli, Mittwoch

Zeit Temperatur Niederschläge Wind Luftdruck Luftfeuchtigkeit
00:00 +22°C° 0 mm 3 m/S 759 mmHg 80%
01:00 +21°C° 0 mm 3 m/S 759 mmHg 81%
02:00 +21°C° 0 mm 3 m/S 759 mmHg 81%
03:00 +21°C° 0 mm 3 m/S 759 mmHg 81%
04:00 +21°C° 0 mm 3 m/S 758 mmHg 82%
05:00 +21°C° 0 mm 3 m/S 759 mmHg 78%
06:00 +22°C° 0 mm 3 m/S 759 mmHg 73%
07:00 +24°C° 0 mm 2 m/S 759 mmHg 69%
08:00 +26°C° 0 mm 3 m/S 759 mmHg 61%
09:00 +28°C° 0 mm 3 m/S 759 mmHg 53%
10:00 +29°C° 0 mm 3 m/S 759 mmHg 45%
11:00 +30°C° 0 mm 4 m/S 759 mmHg 44%
12:00 +32°C° 0 mm 4 m/S 759 mmHg 43%
13:00 +33°C° 0 mm 4 m/S 759 mmHg 42%
14:00 +32°C° 0 mm 4 m/S 758 mmHg 45%
15:00 +32°C° 0 mm 4 m/S 758 mmHg 48%
16:00 +32°C° 0 mm 4 m/S 758 mmHg 51%
17:00 +29°C° 0 mm 3 m/S 758 mmHg 56%
18:00 +28°C° 0 mm 3 m/S 758 mmHg 61%
19:00 +27°C° 0 mm 2 m/S 758 mmHg 66%
20:00 +26°C° 0 mm 2 m/S 759 mmHg 72%
21:00 +25°C° 0 mm 2 m/S 759 mmHg 78%
22:00 +23°C° 0 mm 1 m/S 760 mmHg 84%
23:00 +23°C° 0 mm 1 m/S 759 mmHg 85%

9 Juli, Donnerstag

Zeit Temperatur Niederschläge Wind Luftdruck Luftfeuchtigkeit
00:00 +23°C° 0 mm 1 m/S 759 mmHg 85%
01:00 +22°C° 0 mm 1 m/S 759 mmHg 86%
02:00 +22°C° 0 mm 1 m/S 759 mmHg 86%
03:00 +22°C° 0 mm 1 m/S 759 mmHg 86%
04:00 +22°C° 0 mm 1 m/S 758 mmHg 86%
05:00 +23°C° 0 mm 1 m/S 758 mmHg 82%
06:00 +24°C° 0 mm 2 m/S 758 mmHg 77%
07:00 +25°C° 0 mm 2 m/S 758 mmHg 72%
08:00 +27°C° 0 mm 2 m/S 758 mmHg 63%
09:00 +30°C° 0 mm 2 m/S 758 mmHg 54%
10:00 +33°C° 0 mm 3 m/S 758 mmHg 45%
11:00 +34°C° 0 mm 3 m/S 758 mmHg 44%
12:00 +34°C° 0 mm 4 m/S 758 mmHg 44%
13:00 +35°C° 0 mm 5 m/S 757 mmHg 44%
14:00 +35°C° 0 mm 5 m/S 757 mmHg 46%
15:00 +34°C° 0 mm 6 m/S 757 mmHg 47%
16:00 +34°C° 0 mm 6 m/S 757 mmHg 49%
17:00 +33°C° 0 mm 6 m/S 757 mmHg 55%
18:00 +30°C° 0 mm 5 m/S 757 mmHg 61%
19:00 +29°C° 0 mm 5 m/S 757 mmHg 67%
20:00 +28°C° 0 mm 4 m/S 757 mmHg 72%
21:00 +27°C° 0 mm 3 m/S 758 mmHg 78%
22:00 +25°C° 0 mm 2 m/S 759 mmHg 83%
23:00 +25°C° 0 mm 2 m/S 758 mmHg 81%
Mehr zeigen